map of KMP home
Great Circle Mapper logo
KMP - Airport
Location
City:  Keetmanshoop, Namibia
ICAO / IATA:FYKT / KMP

Details
Type:Airport (Aerodrome, Airfield)
Use:Public/Civil
Latitude:2632'23"S (-26.539827)
Longitude:1806'41"E (18.111447)
Datum:WGS 1984
Elevation:3506 ft (1069 m)
Variation:16.84W (WMM2015 magnetic declination)
0.01 annual change
Runways:2
Longest:7598 × 148 ft (2316 × 45 m), paved

Time
Time Zone:UTC+1 (DST+2)
Local Time:

Weather
METAR:FYKT 281400Z AUTO 03010KT //// // ////// 33/09 Q1014
TAF:FYKT 280400Z 2806/2912 03007KT CAVOK
BECMG 2810/2812 34008KT 9999 SCT035TCU PROB40 2813/2818 -TSRA FEW035CB
BECMG 2819/2821 34006KT NSW FEW030CB
TEMPO 2823/2904 03004KT NSC
BECMG 2910/2912 SCT040

Related Locations
Nearby:
Farthest:PHHF: 12110 mi / 19489 km
Tern Island [French Frigate Shoals Airport], Hawaii, HI, US

Find:

   beyond  
but within

Other Information
Maps:
NOTAMs:
Links:
Sources:

  
flag of Namibia   

Sectional Chart

Flight Planning
at skyvector.com

Satellite Image

Google Maps Satellite View

 

Copyright © 2004-2015 Karl L. Swartz. All rights reserved.
The Great Circle Mapper name and logo are trademarks of the Great Circle Mapper.
All other trademarks mentioned herein belong to their respective owners.
Please see credits for attibutions and further copyright information.

  Follow gcmap on Facebook Follow gcmap on Twitter Follow gcmap on Google+

hCard Microformat

Geo Microformat